Custer, SD

4:18 AM MDT on July 24, 2016 (GMT -0600)
Custer County

Weather History for KCUT - October, 2012

Change the Weather History Date:

Sunday, October 14, 2012

  Actual Average Record
Temperature  
Mean Temperature 48 °F 43 °F  
Max Temperature 59 °F 55 °F 79 °F (1958)
Min Temperature 36 °F 31 °F 6 °F (1969)
Degree Days  
Heating Degree Days 17 22  
Month to date heating degree days 328 278  
Since 1 July heating degree days 609 764  
Cooling Degree Days 0 0  
Month to date cooling degree days 0 0  
Year to date cooling degree days 390 177  
Moisture  
Dew Point 30 °F    
Average Humidity 55    
Maximum Humidity 79    
Minimum Humidity 30    
Precipitation  
Precipitation 0.00 in 0.05 in 1.25 in (1942)
Month to date precipitation 0.63 0.83  
Year to date precipitation 10.91 17.32  
Sea Level Pressure  
Sea Level Pressure 30.03 in    
Wind  
Wind Speed 9 mph (WNW)    
Max Wind Speed 26 mph    
Max Gust Speed 39 mph    
Visibility 10 miles    
Events      
T = Trace of Precipitation, MM = Missing Value Source: NWS Daily Summary

Daily Weather History Graph

Daily Weather History Graph

Search for Another Location

Airport or City:

Trip Planner

Search our weather history database for the weather conditions in past years. The results will help you decide how hot, cold, wet, or windy it might be!

Date:

Astronomy

Oct. 14, 2012 Rise Set
Actual Time 7:08 AM MDT 6:11 PM MDT
Civil Twilight 6:39 AM MDT 6:40 PM MDT
Nautical Twilight 6:05 AM MDT 7:13 PM MDT
Astronomical Twilight 5:32 AM MDT 7:47 PM MDT
Moon 6:09 AM MDT (10/14) 5:32 PM MDT (10/14)
Length of Visible Light 12h 01m
Length of Day
11h 03m
Waning Crescent, 1% of the Moon is Illuminated
Oct 14
Waning Crescent
Oct 15
New
Oct 21
First Quarter
Oct 29
Full
Nov 6
Last Quarter

Hourly Weather History & Observations

Time (MDT) Temp. Windchill Dew Point Humidity Pressure Visibility Wind Dir Wind Speed Gust Speed Precip Events Conditions
12:53 AM 42.1 °F 39.2 °F 32.0 °F 67% 29.98 in 10.0 mi WNW 4.6 mph - N/A   Clear
1:53 AM 37.0 °F 33.3 °F 30.9 °F 79% 30.00 in 10.0 mi WSW 4.6 mph - N/A   Clear
2:53 AM 39.9 °F 36.7 °F 33.1 °F 77% 30.00 in 10.0 mi SW 4.6 mph - N/A   Clear
3:53 AM 39.0 °F 36.8 °F 33.1 °F 79% 30.02 in 10.0 mi SW 3.5 mph - N/A   Clear
4:53 AM 41.0 °F 37.1 °F 34.0 °F 76% 30.04 in 10.0 mi West 5.8 mph - N/A   Clear
5:53 AM 41.0 °F 38.0 °F 33.1 °F 73% 30.05 in 10.0 mi WNW 4.6 mph - N/A   Clear
6:53 AM 43.0 °F 39.5 °F 33.1 °F 68% 30.06 in 10.0 mi WNW 5.8 mph - N/A   Clear
7:53 AM 45.0 °F 40.1 °F 33.1 °F 63% 30.07 in 10.0 mi WNW 9.2 mph - N/A   Clear
8:53 AM 50.0 °F - 33.1 °F 52% 30.06 in 10.0 mi WNW 9.2 mph - N/A   Clear
9:53 AM 53.1 °F - 30.9 °F 43% 30.07 in 10.0 mi WNW 15.0 mph 23.0 mph N/A   Clear
10:53 AM 54.0 °F - 32.0 °F 43% 30.08 in 10.0 mi WNW 21.9 mph 33.4 mph N/A   Partly Cloudy
11:53 AM 55.9 °F - 30.9 °F 39% 30.05 in 10.0 mi NW 16.1 mph 31.1 mph N/A   Partly Cloudy
12:53 PM 55.9 °F - 28.9 °F 36% 30.06 in 10.0 mi WNW 18.4 mph 35.7 mph N/A   Clear
1:53 PM 57.0 °F - 28.9 °F 34% 30.06 in 10.0 mi WNW 15.0 mph 24.2 mph N/A   Clear
2:53 PM 57.9 °F - 27.0 °F 31% 30.03 in 10.0 mi NW 13.8 mph 21.9 mph N/A   Clear
3:53 PM 57.9 °F - 27.0 °F 31% 30.04 in 10.0 mi West 15.0 mph 26.5 mph N/A   Partly Cloudy
4:53 PM 57.9 °F - 28.0 °F 32% 30.03 in 10.0 mi WNW 13.8 mph 20.7 mph N/A   Clear
5:53 PM 55.0 °F - 27.0 °F 34% 30.04 in 10.0 mi West 10.4 mph 16.1 mph N/A   Clear
6:53 PM 51.1 °F - 27.0 °F 39% 30.04 in 10.0 mi West 6.9 mph - N/A   Clear
7:53 PM 48.0 °F - 27.0 °F 44% 30.05 in 10.0 mi WSW 4.6 mph - N/A   Clear
8:53 PM 48.0 °F - 27.0 °F 44% 30.03 in 10.0 mi WNW 6.9 mph - N/A   Clear
9:53 PM 48.0 °F - 27.0 °F 44% 30.01 in 10.0 mi West 5.8 mph - N/A   Clear
10:53 PM 48.0 °F - 27.0 °F 44% 30.00 in 10.0 mi Calm Calm - N/A   Clear
11:53 PM 46.9 °F - 27.0 °F 46% 29.97 in 10.0 mi West 4.6 mph - N/A   Clear